• In Netherlands
  • List of Countries
  • For 7 days
  • Water Temperature
  • Satellite Maps
  • Weather Map
  • Weather Widgets
  • user-avatar
    Login

    Hourly Weather Khulna

    Today, 27 February, Monday

    Time Temperature Precipitation Wind Pressure Humidity
    00:00 +20°C° 0 mm 2 mps 758 mmHg 36%
    01:00 +20°C° 0 mm 2 mps 757 mmHg 38%
    02:00 +20°C° 0 mm 2 mps 757 mmHg 40%
    03:00 +19°C° 0 mm 2 mps 757 mmHg 42%
    04:00 +18°C° 0 mm 2 mps 758 mmHg 43%
    05:00 +18°C° 0 mm 2 mps 758 mmHg 45%
    06:00 +18°C° 0 mm 1 mps 758 mmHg 60%
    07:00 +21°C° 0 mm 1 mps 759 mmHg 51%
    08:00 +24°C° 0 mm 1 mps 759 mmHg 42%
    09:00 +27°C° 0 mm 1 mps 760 mmHg 33%
    10:00 +29°C° 0 mm 2 mps 760 mmHg 28%
    11:00 +31°C° 0 mm 2 mps 760 mmHg 22%
    12:00 +34°C° 0 mm 2 mps 760 mmHg 16%
    13:00 +34°C° 0 mm 3 mps 759 mmHg 15%
    14:00 +35°C° 0 mm 3 mps 758 mmHg 14%
    15:00 +36°C° 0 mm 4 mps 758 mmHg 12%
    16:00 +33°C° 0 mm 3 mps 757 mmHg 15%
    17:00 +30°C° 0 mm 2 mps 757 mmHg 18%
    18:00 +27°C° 0 mm 2 mps 757 mmHg 21%
    19:00 +26°C° 0 mm 2 mps 758 mmHg 24%
    20:00 +25°C° 0 mm 1 mps 758 mmHg 26%
    21:00 +23°C° 0 mm 1 mps 758 mmHg 29%
    22:00 +23°C° 0 mm 2 mps 758 mmHg 34%
    23:00 +21°C° 0 mm 2 mps 759 mmHg 40%

    Tomorrow, 28 February, Tuesday

    Time Temperature Precipitation Wind Pressure Humidity
    00:00 +21°C° 0 mm 2 mps 759 mmHg 45%
    01:00 +20°C° 0 mm 2 mps 758 mmHg 50%
    02:00 +20°C° 0 mm 2 mps 758 mmHg 54%
    03:00 +19°C° 0 mm 2 mps 758 mmHg 58%
    04:00 +19°C° 0 mm 2 mps 758 mmHg 58%
    05:00 +19°C° 0 mm 2 mps 759 mmHg 58%
    06:00 +18°C° 0 mm 2 mps 759 mmHg 58%
    07:00 +21°C° 0 mm 2 mps 759 mmHg 48%
    08:00 +25°C° 0 mm 1 mps 760 mmHg 38%
    09:00 +28°C° 0 mm 1 mps 760 mmHg 29%
    10:00 +30°C° 0 mm 1 mps 760 mmHg 24%
    11:00 +32°C° 0 mm 1 mps 760 mmHg 19%
    12:00 +34°C° 0 mm 1 mps 760 mmHg 14%
    13:00 +35°C° 0 mm 2 mps 759 mmHg 13%
    14:00 +36°C° 0 mm 3 mps 758 mmHg 12%
    15:00 +36°C° 0 mm 3 mps 757 mmHg 12%
    16:00 +34°C° 0 mm 3 mps 757 mmHg 15%
    17:00 +31°C° 0 mm 2 mps 757 mmHg 17%
    18:00 +28°C° 0 mm 2 mps 757 mmHg 20%
    19:00 +27°C° 0 mm 2 mps 757 mmHg 22%
    20:00 +25°C° 0 mm 1 mps 758 mmHg 24%
    21:00 +24°C° 0 mm 1 mps 758 mmHg 25%
    22:00 +23°C° 0 mm 1 mps 758 mmHg 27%
    23:00 +23°C° 0 mm 1 mps 758 mmHg 29%

    Day after tomorrow, 1 March, Wednesday

    Time Temperature Precipitation Wind Pressure Humidity
    00:00 +23°C° 0 mm 2 mps 758 mmHg 31%
    01:00 +21°C° 0 mm 2 mps 758 mmHg 35%
    02:00 +21°C° 0 mm 2 mps 757 mmHg 40%
    03:00 +20°C° 0 mm 2 mps 757 mmHg 45%
    04:00 +20°C° 0 mm 2 mps 757 mmHg 51%
    05:00 +19°C° 0 mm 2 mps 758 mmHg 57%
    06:00 +19°C° 0 mm 2 mps 758 mmHg 63%
    07:00 +23°C° 0 mm 2 mps 758 mmHg 57%
    08:00 +25°C° 0 mm 2 mps 759 mmHg 51%
    09:00 +28°C° 0 mm 2 mps 760 mmHg 45%
    10:00 +30°C° 0 mm 2 mps 759 mmHg 37%
    11:00 +34°C° 0 mm 2 mps 759 mmHg 28%
    12:00 +36°C° 0 mm 2 mps 758 mmHg 19%
    13:00 +37°C° 0 mm 2 mps 758 mmHg 17%
    14:00 +37°C° 0 mm 3 mps 757 mmHg 15%
    15:00 +38°C° 0 mm 3 mps 756 mmHg 13%
    16:00 +35°C° 0 mm 2 mps 756 mmHg 17%
    17:00 +32°C° 0 mm 2 mps 756 mmHg 20%
    18:00 +29°C° 0 mm 1 mps 756 mmHg 23%
    19:00 +28°C° 0 mm 1 mps 757 mmHg 26%
    20:00 +26°C° 0 mm 1 mps 757 mmHg 28%
    21:00 +25°C° 0 mm 1 mps 758 mmHg 30%
    22:00 +25°C° 0 mm 2 mps 757 mmHg 38%
    23:00 +24°C° 0 mm 2 mps 757 mmHg 46%

    2 March, Thursday

    Time Temperature Precipitation Wind Pressure Humidity
    00:00 +24°C° 0 mm 3 mps 757 mmHg 54%
    01:00 +22°C° 0 mm 3 mps 757 mmHg 59%
    02:00 +22°C° 0 mm 3 mps 757 mmHg 64%
    03:00 +21°C° 0 mm 3 mps 756 mmHg 69%
    04:00 +21°C° 0 mm 3 mps 757 mmHg 72%
    05:00 +21°C° 0 mm 3 mps 757 mmHg 75%
    06:00 +20°C° 0 mm 2 mps 757 mmHg 78%
    07:00 +24°C° 0 mm 2 mps 757 mmHg 65%
    08:00 +27°C° 0 mm 2 mps 758 mmHg 53%
    09:00 +30°C° 0 mm 3 mps 759 mmHg 40%
    10:00 +33°C° 0 mm 3 mps 758 mmHg 32%
    11:00 +36°C° 0 mm 3 mps 758 mmHg 24%
    12:00 +38°C° 0 mm 3 mps 757 mmHg 16%
    13:00 +39°C° 0 mm 3 mps 756 mmHg 15%
    14:00 +39°C° 0 mm 2 mps 755 mmHg 14%
    15:00 +40°C° 0 mm 2 mps 754 mmHg 12%
    16:00 +37°C° 0 mm 2 mps 754 mmHg 17%
    17:00 +35°C° 0 mm 2 mps 754 mmHg 21%
    18:00 +31°C° 0 mm 2 mps 754 mmHg 25%
    19:00 +30°C° 0 mm 3 mps 755 mmHg 30%
    20:00 +29°C° 0 mm 4 mps 755 mmHg 34%
    21:00 +27°C° 0 mm 4 mps 756 mmHg 39%
    22:00 +27°C° 0 mm 4 mps 756 mmHg 44%
    23:00 +26°C° 0 mm 4 mps 755 mmHg 49%

    3 March, Friday

    Time Temperature Precipitation Wind Pressure Humidity
    00:00 +25°C° 0 mm 4 mps 755 mmHg 55%
    01:00 +25°C° 0 mm 4 mps 755 mmHg 59%
    02:00 +24°C° 0 mm 3 mps 754 mmHg 64%
    03:00 +24°C° 0 mm 3 mps 754 mmHg 68%
    04:00 +22°C° 0 mm 3 mps 754 mmHg 71%
    05:00 +22°C° 0 mm 3 mps 754 mmHg 73%
    06:00 +22°C° 0 mm 3 mps 755 mmHg 76%
    07:00 +25°C° 0 mm 3 mps 755 mmHg 66%
    08:00 +28°C° 0 mm 3 mps 756 mmHg 57%
    09:00 +30°C° 0 mm 4 mps 757 mmHg 47%
    10:00 +34°C° 0 mm 4 mps 756 mmHg 38%
    11:00 +36°C° 0 mm 4 mps 756 mmHg 29%
    12:00 +40°C° 0 mm 4 mps 756 mmHg 20%
    13:00 +40°C° 0 mm 5 mps 755 mmHg 19%
    14:00 +40°C° 0 mm 5 mps 754 mmHg 18%
    15:00 +41°C° 0 mm 6 mps 753 mmHg 17%
    16:00 +39°C° 0 mm 6 mps 753 mmHg 21%
    17:00 +35°C° 0 mm 5 mps 753 mmHg 25%
    18:00 +33°C° 0 mm 5 mps 753 mmHg 29%
    19:00 +30°C° 0 mm 5 mps 754 mmHg 39%
    20:00 +29°C° 0 mm 5 mps 754 mmHg 49%
    21:00 +27°C° 0 mm 5 mps 755 mmHg 59%
    22:00 +26°C° 0 mm 5 mps 755 mmHg 63%
    23:00 +25°C° 0 mm 4 mps 755 mmHg 68%

    4 March, Saturday

    Time Temperature Precipitation Wind Pressure Humidity
    00:00 +25°C° 0 mm 4 mps 754 mmHg 72%
    01:00 +23°C° 0 mm 4 mps 754 mmHg 75%
    02:00 +23°C° 0 mm 4 mps 754 mmHg 78%
    03:00 +24°C° 0 mm 3 mps 754 mmHg 81%
    04:00 +22°C° 0 mm 3 mps 754 mmHg 84%
    05:00 +22°C° 0 mm 3 mps 754 mmHg 86%
    06:00 +23°C° 0 mm 2 mps 755 mmHg 89%
    07:00 +25°C° 0 mm 3 mps 755 mmHg 78%
    08:00 +27°C° 0 mm 3 mps 756 mmHg 68%
    09:00 +30°C° 0 mm 4 mps 757 mmHg 57%
    10:00 +33°C° 0 mm 4 mps 756 mmHg 47%
    11:00 +35°C° 0 mm 4 mps 756 mmHg 36%
    12:00 +38°C° 0 mm 4 mps 755 mmHg 25%
    13:00 +40°C° 0 mm 5 mps 755 mmHg 24%
    14:00 +40°C° 0 mm 5 mps 754 mmHg 22%
    15:00 +41°C° 0 mm 5 mps 753 mmHg 20%
    16:00 +38°C° 0 mm 6 mps 753 mmHg 29%
    17:00 +35°C° 0 mm 6 mps 753 mmHg 39%
    18:00 +33°C° 0 mm 6 mps 753 mmHg 48%
    19:00 +30°C° 0 mm 6 mps 753 mmHg 58%
    20:00 +29°C° 0 mm 6 mps 754 mmHg 68%
    21:00 +27°C° 0 mm 5 mps 754 mmHg 79%
    22:00 +27°C° 0 mm 5 mps 754 mmHg 81%
    23:00 +26°C° 0 mm 4 mps 754 mmHg 84%
    Show more